Location: Newark
(44.3867°N, 6.6531°E)
Time: 01:55:35
(UTC+00:00)

Envisat - Pass Details

Date: 25 January 2020
Orbit: 764 x 766 km, 98.1° (Epoch: 25 February)

Event Time Altitude Azimuth Distance (km) Brightness Sun altitude
Rises 17:27:07 0° 170° (S) 3,219 6.3 -9.9°
Reaches altitude 10° 17:29:25 10° 172° (S) 2,297 5.6 -10.3°
Maximum altitude 17:34:29 74° 257° (WSW) 799 3.3 -11.2°
Drops below altitude 10° 17:39:35 10° 343° (NNW) 2,313 5.5 -12.1°
Sets 17:41:55 0° 346° (NNW) 3,244 6.3 -12.5°
